Date String (YYYY-MM-DD hh:mm:ss) UTC,Instrument flags,Ambient pressure (hPa),Sample flow (lpm),Bypass flow (lpm),Sample temperature (°C),Ambient temperature (°C),ASC tube jacket temperature (°C),LED temperature (°C),Box temperature (°C),Sample RH (%),Span deviation,Mass concentration (μg/m³),Mass concentration (μg/m³),Mass concentration (μg/m³)
DateTimeUTC,F1_M11,P_M11,Q1_M11,Q2_M11,T1_M11,T2_M11,T3_M11,T4_M11,T5_M11,U1_M11,ZSPAN_M11,X0_M11,X2_M11,X1_M11
2022-02-11 09:00:00,,0819.5,4.99,0.00,22.1,21.1,00.0,31.1,23.9,09.3,0000.0,0002.91,0000.89,0000.56
2022-02-11 09:01:00,,0819.4,5.01,0.00,22.1,21.1,00.0,31.1,23.9,09.3,0000.0,0001.97,0000.91,0000.57
2022-02-11 09:02:00,,0819.4,5.00,0.00,22.1,21.1,00.0,31.1,23.9,09.3,0000.0,0001.74,0000.89,0000.57
2022-02-11 09:03:00,,0819.5,4.99,0.00,22.1,21.1,00.0,31.1,23.9,09.2,0000.0,0001.68,0000.88,0000.57
2022-02-11 09:04:00,,0819.5,5.01,0.00,22.1,21.1,00.0,31.1,23.8,09.4,0000.0,0001.60,0000.85,0000.57
2022-02-11 09:05:00,,0819.5,4.99,0.00,22.1,21.1,00.0,31.1,23.8,09.4,0000.0,0001.49,0000.85,0000.57
2022-02-11 09:06:00,,0819.5,4.99,0.00,22.0,21.1,00.0,31.0,23.8,09.4,0000.0,0001.50,0000.86,0000.58
2022-02-11 09:07:00,,0819.6,5.01,0.00,22.0,21.1,00.0,31.0,23.8,09.2,0000.0,0001.51,0000.87,0000.58
2022-02-11 09:08:00,,0819.5,5.01,0.00,22.0,21.1,00.0,31.0,23.7,09.5,0000.0,0001.45,0000.88,0000.58
2022-02-11 09:09:00,,0819.3,5.00,0.00,22.0,21.1,00.0,31.0,23.8,09.4,0000.0,0001.45,0000.87,0000.58
2022-02-11 09:10:00,,0819.1,5.00,0.00,22.0,21.0,00.0,31.0,23.8,09.3,0000.0,0001.36,0000.85,0000.59
2022-02-11 09:11:00,,0819.0,5.01,0.00,22.0,21.0,00.0,31.0,23.8,09.2,0000.0,0001.35,0000.85,0000.59
2022-02-11 09:12:00,,0819.1,5.00,0.00,22.0,21.0,00.0,31.0,23.8,09.3,0000.0,0001.32,0000.84,0000.58
2022-02-11 09:13:00,,0819.2,4.99,0.00,22.0,21.0,00.0,31.0,23.7,09.0,0000.0,0001.37,0000.86,0000.58
2022-02-11 09:14:00,,0819.2,5.00,0.00,22.0,21.0,00.0,31.0,23.7,09.1,0000.0,0001.42,0000.87,0000.57
2022-02-11 09:15:00,,0819.2,5.01,0.00,22.0,20.9,00.0,31.0,23.7,09.2,0000.0,0001.47,0000.89,0000.58
2022-02-11 09:16:00,,0819.0,4.99,0.00,21.9,20.9,00.0,30.9,23.7,09.3,0000.0,0002.14,0000.88,0000.58
2022-02-11 09:17:00,,0819.1,5.00,0.00,21.9,20.9,00.0,30.9,23.7,09.4,0000.0,0002.77,0000.86,0000.58
2022-02-11 09:18:00,,0819.2,5.00,0.00,21.9,20.8,00.0,30.9,23.7,09.2,0000.0,0002.89,0000.84,0000.57
2022-02-11 09:19:00,,0819.2,5.01,0.00,21.9,21.3,00.0,31.0,23.8,09.2,0000.0,0004.30,0000.81,0000.57
2022-02-11 09:20:00,,0819.2,5.00,0.00,22.1,22.2,00.0,31.0,24.0,09.2,0000.0,0004.31,0000.81,0000.57
2022-02-11 09:21:00,,0819.3,5.01,0.00,22.2,23.0,00.0,31.1,24.3,09.2,0000.0,0004.34,0000.82,0000.57
2022-02-11 09:22:00,,0819.3,5.00,0.00,22.3,22.8,00.0,31.1,24.3,09.3,0000.0,0004.34,0000.81,0000.57
2022-02-11 09:23:00,,0819.3,5.00,0.00,22.3,22.6,00.0,31.1,24.2,09.2,0000.0,0004.29,0000.79,0000.57
2022-02-11 09:24:00,,0819.1,5.01,0.00,22.3,22.3,00.0,31.1,24.1,09.3,0000.0,0004.41,0000.80,0000.58
2022-02-11 09:25:00,,0818.9,5.01,0.00,22.3,22.1,00.0,31.1,24.1,09.3,0000.0,0004.64,0000.83,0000.58
2022-02-11 09:26:00,,0819.3,4.99,0.00,22.2,21.9,00.0,31.1,24.1,09.1,0000.0,0004.87,0000.88,0000.57
2022-02-11 09:27:00,,0819.4,5.01,0.00,22.2,21.7,00.0,31.1,24.0,09.1,0000.0,0004.35,0000.93,0000.57
2022-02-11 09:28:00,,0819.2,4.99,0.00,22.2,21.6,00.0,31.1,24.0,09.3,0000.0,0003.70,0000.94,0000.57
2022-02-11 09:29:00,,0819.3,5.00,0.00,22.2,21.5,00.0,31.1,24.0,09.4,0000.0,0003.48,0000.94,0000.58
2022-02-11 09:30:00,,0819.4,5.00,0.00,22.2,21.4,00.0,31.1,24.0,09.5,0000.0,0002.05,0000.95,0000.58
2022-02-11 09:31:00,,0819.4,5.00,0.00,22.2,21.4,00.0,31.1,23.9,09.5,0000.0,0002.04,0000.94,0000.57
2022-02-11 09:32:00,,0819.5,4.99,0.00,22.1,21.3,00.0,31.1,23.9,09.5,0000.0,0002.00,0000.92,0000.56
2022-02-11 09:33:00,,0819.5,4.99,0.00,22.1,21.3,00.0,31.1,23.9,09.5,0000.0,0002.10,0000.95,0000.56
2022-02-11 09:34:00,,0819.5,5.00,0.00,22.1,21.2,00.0,31.1,23.8,09.4,0000.0,0002.14,0000.96,0000.56
2022-02-11 09:35:00,,0819.6,5.02,0.00,22.1,21.2,00.0,31.1,23.8,09.5,0000.0,0002.01,0000.95,0000.56
2022-02-11 09:36:00,,0819.5,4.99,0.00,22.1,21.2,00.0,31.1,23.8,09.4,0000.0,0001.74,0000.90,0000.56
2022-02-11 09:37:00,,0819.8,5.01,0.00,22.0,21.2,00.0,31.1,23.8,09.5,0000.0,0001.46,0000.83,0000.56
2022-02-11 09:38:00,,0819.8,4.99,0.00,22.0,21.1,00.0,31.1,23.7,09.8,0000.0,0001.35,0000.80,0000.55
2022-02-11 09:39:00,,0819.9,5.01,0.00,22.0,21.1,00.0,31.1,23.7,09.7,0000.0,0001.38,0000.79,0000.54
2022-02-11 09:40:00,,0819.9,4.99,0.00,22.0,21.2,00.0,31.1,23.8,09.8,0000.0,0001.44,0000.79,0000.54
2022-02-11 09:41:00,,0819.7,5.00,0.00,22.0,21.2,00.0,31.1,23.8,09.6,0000.0,0001.47,0000.81,0000.54
2022-02-11 09:42:00,,0819.7,5.01,0.00,22.0,21.2,00.0,31.1,23.8,09.5,0000.0,0001.49,0000.81,0000.54
2022-02-11 09:43:00,,0819.8,5.00,0.00,22.0,21.2,00.0,31.0,23.8,09.4,0000.0,0001.68,0000.85,0000.54
2022-02-11 09:44:00,,0819.8,5.00,0.00,22.0,21.1,00.0,31.0,23.7,09.6,0000.0,0001.52,0000.82,0000.55
2022-02-11 09:45:00,,0819.9,5.00,0.00,22.0,21.1,00.0,31.0,23.7,09.7,0000.0,0001.48,0000.81,0000.56
2022-02-11 09:46:00,,0819.9,4.99,0.00,22.0,21.1,00.0,31.0,23.7,09.8,0000.0,0001.53,0000.81,0000.55
2022-02-11 09:47:00,,0819.9,4.99,0.00,21.9,21.1,00.0,31.0,23.7,09.7,0000.0,0001.53,0000.80,0000.55
2022-02-11 09:48:00,,0819.9,5.01,0.00,21.9,21.1,00.0,31.0,23.7,09.7,0000.0,0001.57,0000.81,0000.55
2022-02-11 09:49:00,,0819.8,4.99,0.00,21.9,21.0,00.0,31.0,23.6,09.9,0000.0,0001.72,0000.83,0000.56
2022-02-11 09:50:00,,0819.9,5.00,0.00,21.9,21.0,00.0,31.0,23.6,09.5,0000.0,0001.73,0000.85,0000.57
2022-02-11 09:51:00,,0819.9,5.00,0.00,21.9,21.0,00.0,31.0,23.6,09.8,0000.0,0001.83,0000.87,0000.57
2022-02-11 09:52:00,,0819.9,5.01,0.00,21.9,21.0,00.0,30.9,23.6,09.8,0000.0,0001.84,0000.86,0000.58
2022-02-11 09:53:00,,0819.9,4.99,0.00,21.9,21.0,00.0,30.9,23.6,09.9,0000.0,0002.04,0000.91,0000.59
2022-02-11 09:54:00,,0819.9,5.01,0.00,21.9,21.0,00.0,30.9,23.6,09.8,0000.0,0001.82,0000.88,0000.60
2022-02-11 09:55:00,,0819.9,5.00,0.00,21.9,20.9,00.0,30.9,23.6,09.7,0000.0,0001.90,0000.92,0000.60
2022-02-11 09:56:00,,0819.9,4.99,0.00,21.8,20.9,00.0,30.9,23.6,09.7,0000.0,0001.96,0000.97,0000.60
2022-02-11 09:57:00,,0819.8,5.01,0.00,21.8,20.9,00.0,30.9,23.6,09.9,0000.0,0001.92,0000.96,0000.60
2022-02-11 09:58:00,,0819.8,4.98,0.00,21.9,21.4,00.0,30.9,23.7,09.8,0000.0,0001.92,0000.97,0000.61
2022-02-11 09:59:00,,0819.9,5.01,0.00,22.0,22.3,00.0,31.0,24.0,09.6,0000.0,0001.94,0000.98,0000.61
